Regional Weather Roundup
Issued by NWS Sioux Falls, SD

Home | Current Version | Previous Version | Text Only | Print | Product List | Glossary On
Versions: 1 2 3 4 5 6 7 8 9 10 11 12 13 14 15 16 17 18 19 20 21 22 23 24 25 26 27 28 29 30 31 32 33 34 35 36 37 38 39 40 41 42 43 44 45 46 47 48 49 50
000
ASUS43 KFSD 251802
RWRFSD

WEATHER ROUNDUP FOR SE SOUTH DAKOTA/SW MINNESOTA/NW IOWA
NATIONAL WEATHER SERVICE SIOUX FALLS SD
100 PM CDT SAT MAR 25 2017

NOTE: "FAIR" INDICATES FEW OR NO CLOUDS BELOW 12,000 FEET WITH NO
SIGNIFICANT WEATHER AND OR OBSTRUCTIONS TO VISIBILITY.


SDZ038>040-050-052>070-251900-
SOUTHEAST SOUTH DAKOTA

CITY           SKY/WX    TMP DP  RH WIND       PRES   REMARKS
BROOKINGS      CLOUDY    37  33  85 E12       30.07F
CHAMBERLAIN    FAIR      45  35  67 E6        30.05F
6HR MIN TEMP:  34; 6HR MAX TEMP:  45;

HURON          CLOUDY    39  32  76 E8        30.08F
6HR MIN TEMP:  33; 6HR MAX TEMP:  39;

MADISON        CLOUDY    37  37 100 E13G18    30.07F
MITCHELL       CLOUDY    38  34  85 E7        30.09F
6HR MIN TEMP:  34; 6HR MAX TEMP:  38;

SIOUX FALLS    CLOUDY    41  37  86 E13       30.07F
6HR MIN TEMP:  35; 6HR MAX TEMP:  42;

WINNER         FAIR      50  35  56 VRB3      30.03F
YANKTON        CLOUDY    39  36  87 N10       30.06F
$$

MNZ071-072-080-081-089-090-097-098-251900-
SOUTHWEST MINNESOTA

CITY           SKY/WX    TMP DP  RH WIND       PRES   REMARKS
FAIRMONT       CLOUDY    39  36  89 NE16      30.07F
JACKSON        CLOUDY    37  34  87 NE17      30.07S
MARSHALL       CLOUDY    40  35  83 E14       30.11F
6HR MIN TEMP:  34; 6HR MAX TEMP:  40;

MONTEVIDEO     CLOUDY    37  34  87 SE12      30.14F
PIPESTONE      CLOUDY    37  34  87 E10       30.07R
REDWOOD FALLS  CLOUDY    41  34  76 NE10      30.11F
TRACY          CLOUDY    38  37  96 NE14      30.10S
WINDOM         CLOUDY    37  36  93 NE12G18   30.08F
WORTHINGTON    CLOUDY    37  36  96 NE15      30.06F FOG
$$

IAZ001>003-012>014-020>022-031-032-NEZ013-014-SDZ071-251900-
NORTHWEST IOWA

CITY           SKY/WX    TMP DP  RH WIND       PRES   REMARKS
CHEROKEE       CLOUDY    38  37  98 NE14G20   30.03F FOG
ESTHERVILLE    CLOUDY    37  37 100 NE17      30.04F
LE MARS        CLOUDY    39  37  93 NE14G22   30.05S
ORANGE CITY    CLOUDY    39  37  93 NE7G16    30.04S
SHELDON        CLOUDY    39  39 100 NE16G23   30.03F
SIOUX CITY     CLOUDY    40  37  89 NE12      30.04S
6HR MIN TEMP:  38; 6HR MAX TEMP:  40;

SPENCER        CLOUDY    39  36  89 NE17      30.04F
6HR MIN TEMP:  37; 6HR MAX TEMP:  39;

STORM LAKE     MIX PCPN  37  37 100 NE21      30.00F VSB 3/4
$$

ABBREVIATIONS USED IN REMARKS
   TC - TEMPERATURE IN CELSIUS
  WCI - WIND CHILL INDEX
   HX - HEAT INDEX
  VSB - VISIBILITY





USA.gov is the U.S. government's official web portal to all federal, state and local government web resources and services.